カタログに戻る

STARLINK-37245

運用中通信VLEO
NORAD 68547·PAYLOAD·🇺🇸 United States

打ち上げ Apr 2, 2026 から Cape Canaveral Space Force Station

Loading…

次のパス (今後24時間)

TLE

最新Source: CelesTrak SupGP

元期: Sep 14, 2026, 21:40 UTC

1 68547C 26070F   26257.90326389  .00009278  00000+0  27411-3 0  2577
2 68547  53.1579 200.0055 0001639  94.9579   4.6649 15.34387305    15

AllMySatでSTARLINK-37245をリアルタイム追跡

Download on the App Store